Wind_Speed
15 16 16 17 18 18 19 19 20 21 21 20 20 24 29 27 28 31 34 36 38 40 41 43 43 44 45 45 47 48 50 51 53 55 56 57 57 58 58 58 58 57 57 56
17 16 17 17 17 18 18 19 20 21 23 23 23 27 32 32 33 35 37 39 41 43 44 44 44 45 45 46 48 51 53 55 57 58 60 61 61 62 62 62 62 61 61 60
19 19 20 20 20 21 22 23 25 26 28 29 31 33 35 35 36 38 40 42 43 44 45 45 46 47 49 51 54 58 61 63 65 67 68 69 69 69 68 68 68 67 66 65
20 21 21 22 23 25 27 28 30 32 35 36 38 40 41 42 42 43 44 45 46 47 48 50 52 54 57 60 63 67 70 72 74 76 77 77 77 77 75 74 73 72 70 69
21 22 23 25 27 29 31 33 35 38 40 41 42 43 45 48 49 48 48 49 51 53 56 59 62 64 66 69 72 74 77 80 82 83 84 83 82 81 79 78 76 75 73 71
20 23 25 28 30 32 35 37 39 42 44 46 46 46 51 53 52 54 56 58 60 63 66 68 70 72 74 76 78 80 82 83 84 85 84 83 81 78 76 74 72 72 71 70
23 23 27 30 33 36 38 41 42 44 45 44 46 49 53 51 56 60 64 67 70 72 73 73 75 78 79 80 81 81 80 79 78 77 75 74 72 70 68 66 65 66 68 69
26 29 30 33 35 38 40 42 43 45 46 47 50 51 55 57 60 65 69 73 74 74 74 75 78 79 79 79 78 76 73 70 67 66 66 65 65 63 61 59 58 59 61 63
26 30 33 34 36 38 40 42 44 46 49 52 53 54 57 59 66 71 74 75 75 75 75 75 76 76 75 73 69 65 64 64 63 65 66 66 64 61 57 54 53 54 56 57
29 30 33 36 37 39 42 44 46 49 52 55 58 57 58 65 72 75 75 76 77 76 76 76 74 72 67 62 58 58 62 65 66 67 66 63 58 55 53 52 50 50 51 52
30 33 36 40 42 44 45 48 50 53 55 58 62 61 64 68 71 74 76 75 75 75 74 72 68 62 55 52 53 57 60 61 61 57 52 46 44 44 46 47 46 46 47 49
33 36 39 42 44 46 49 51 53 56 58 59 63 67 61 66 71 72 71 69 69 69 66 61 54 48 46 48 51 54 55 53 49 43 37 34 33 34 37 40 41 42 44 46
37 40 42 45 48 51 53 55 56 58 60 63 66 68 64 68 68 67 66 66 65 61 54 48 44 43 44 46 48 50 49 46 41 35 31 29 28 28 30 32 34 36 39 42
39 41 44 46 50 54 56 56 56 60 64 68 70 71 71 70 70 67 65 63 59 52 47 43 41 41 42 44 46 46 45 41 37 32 30 28 27 27 26 26 26 28 33 36
41 44 47 50 54 56 59 60 61 65 69 73 73 72 69 68 65 61 59 56 50 45 42 39 38 38 39 42 43 43 41 38 35 32 30 28 27 26 25 23 23 23 25 29
45 49 52 54 57 61 65 65 67 72 74 74 74 69 64 61 57 54 53 50 44 41 38 36 35 36 38 40 41 41 39 37 34 32 30 28 27 26 24 22 22 22 23 24
48 52 56 58 61 65 66 70 72 75 73 72 70 63 60 56 53 52 51 47 42 39 36 35 34 35 37 38 40 40 39 37 34 32 31 28 27 26 24 22 21 20 21 22
52 56 59 62 66 65 71 72 74 74 68 68 62 58 55 53 51 50 48 43 40 37 34 33 33 35 36 38 40 40 39 38 35 33 31 29 28 26 24 23 21 20 20 21
55 58 61 64 67 68 74 74 73 72 64 64 58 53 50 49 47 44 41 39 37 35 34 34 34 36 37 39 40 41 40 38 36 34 32 30 29 28 26 24 22 21 21 22
57 60 62 65 68 71 76 75 72 69 58 56 51 49 49 48 47 43 40 38 36 35 34 34 35 36 38 40 41 42 41 40 38 36 34 32 31 30 29 27 25 24 24 24
58 62 64 67 69 72 76 74 70 61 57 53 48 48 47 46 45 43 41 39 38 36 36 36 36 37 39 41 42 42 42 41 40 38 36 34 33 32 31 30 29 28 28 28
59 62 65 68 70 71 74 70 64 56 50 48 48 48 46 44 43 41 40 39 38 37 37 37 38 39 41 43 44 44 44 43 41 39 38 36 34 33 33 32 32 32 32 32
59 62 65 68 70 72 70 64 57 51 47 46 46 46 45 43 42 41 40 39 39 39 39 39 40 42 44 45 46 45 45 44 42 40 38 37 36 35 34 34 34 33 34 35
61 63 65 69 71 70 67 61 53 48 46 46 47 46 44 43 42 41 40 40 40 40 41 42 43 45 47 48 48 47 47 46 44 42 40 38 37 36 36 35 35 36 36 37
61 64 67 69 72 70 65 59 51 46 45 46 47 46 44 42 41 41 41 41 42 43 44 46 47 49 49 50 49 49 49 48 47 45 43 41 40 39 38 38 38 38 38 39
62 65 68 70 72 69 63 56 49 45 45 46 46 45 42 41 41 42 43 44 45 46 48 49 51 52 52 52 52 52 52 51 50 48 47 46 45 44 43 43 43 42 42 42
Wind_Direction
340 335 333 333 331 328 325 321 318 315 317 315 310 301 300 304 300 297 296 296 296 295 295 295 294 293 290 287 285 283 282 282 281 280 279 279 278 277 277 276 276 275 273 272
353 351 350 348 345 341 337 333 328 323 319 315 309 302 302 304 301 299 298 297 297 296 297 297 296 294 291 288 286 285 285 286 286 285 283 282 280 280 279 279 278 277 275 274
357 356 353 349 345 341 337 333 329 325 321 318 314 308 307 306 303 303 303 301 300 300 301 300 299 298 296 293 291 290 291 291 291 291 289 287 285 284 282 281 279 278 277 275
359 356 353 349 346 341 337 334 330 326 323 321 318 313 312 309 309 309 307 305 304 304 304 303 303 302 300 298 296 295 295 295 294 293 291 290 288 286 285 283 280 278 277 275
352 350 346 343 340 336 333 330 327 324 321 318 317 317 316 313 313 311 309 308 307 306 306 307 306 305 302 301 299 298 297 296 295 294 292 290 288 286 284 282 279 277 274 271
343 341 338 336 334 332 329 327 324 322 322 322 322 321 315 316 314 312 311 310 309 309 310 310 308 305 303 302 301 299 298 296 295 293 291 289 287 285 282 278 275 272 270 267
339 338 334 333 332 330 329 327 325 324 325 323 321 317 315 316 315 314 313 311 311 312 311 310 308 306 304 303 301 300 298 296 294 292 290 288 287 284 280 276 270 265 263 262
336 335 335 332 331 329 328 327 325 323 321 318 319 319 317 316 314 311 310 310 311 311 311 309 307 306 304 303 302 300 298 296 294 291 289 287 286 284 281 276 269 263 261 260
334 333 331 330 330 330 328 326 323 321 319 318 321 319 315 313 310 309 308 310 311 311 309 307 305 304 303 303 302 302 301 299 296 293 289 286 283 280 278 274 270 264 259 258
332 332 330 329 329 328 328 326 324 323 321 318 317 318 315 311 308 308 310 311 311 309 308 306 305 304 304 304 305 306 307 306 303 298 293 287 281 274 271 268 266 262 257 254
331 332 332 330 331 330 329 326 324 323 320 319 317 315 313 308 307 309 311 311 309 308 306 304 303 303 304 307 310 312 313 313 311 307 301 292 282 274 269 266 264 261 256 252
332 332 331 330 330 330 329 325 323 321 319 317 314 314 312 308 309 309 309 306 303 303 302 302 303 304 308 312 316 319 322 323 322 318 312 304 295 285 276 270 267 263 258 253
332 332 331 331 330 330 327 324 322 320 317 315 314 314 312 310 309 308 305 304 305 307 307 307 307 309 313 317 321 325 328 330 328 324 320 314 306 299 290 279 272 266 260 255
330 330 331 330 328 328 326 323 320 318 317 317 318 316 317 314 314 313 311 311 312 313 312 311 311 313 318 322 326 329 332 333 330 327 324 319 314 311 305 292 280 272 264 259
328 328 329 329 328 327 324 322 321 319 319 320 319 319 319 317 316 316 314 314 315 314 312 312 314 317 322 325 328 331 332 333 331 327 323 320 318 315 313 303 289 279 269 260
327 327 328 329 328 327 325 324 323 320 321 320 320 322 319 318 318 318 316 317 317 315 314 316 318 322 325 328 330 331 331 330 328 325 322 319 317 316 314 308 299 285 273 261
326 327 328 329 328 327 324 326 324 322 323 322 323 323 321 322 323 323 322 322 321 318 317 319 321 324 327 330 331 331 330 328 325 322 320 317 314 313 312 309 302 291 277 264
328 329 329 329 328 327 326 325 323 323 325 323 324 324 325 326 326 324 323 323 321 318 318 319 320 323 327 329 330 330 329 327 323 319 316 314 311 309 307 305 301 292 280 268
329 330 329 328 327 326 324 327 326 325 327 326 327 327 327 325 325 324 324 324 323 321 321 321 322 324 326 328 329 329 328 326 322 318 313 310 307 304 302 300 296 289 282 274
329 330 329 328 326 326 326 327 327 327 328 328 328 327 326 326 327 329 329 329 328 326 325 324 323 324 325 326 328 328 327 325 322 318 313 309 304 300 297 294 290 286 281 276
329 329 329 328 327 326 327 328 328 329 330 329 329 329 329 329 329 330 330 330 329 328 326 325 325 325 325 326 327 327 326 325 322 319 316 310 305 300 295 291 286 283 279 275
330 329 329 328 328 327 328 328 329 330 329 328 329 330 330 330 330 329 329 329 329 328 327 326 325 325 326 326 326 326 326 324 321 319 316 312 307 301 296 291 287 282 277 274
329 329 328 328 328 328 328 328 329 328 328 329 331 331 331 331 330 330 329 329 329 328 327 326 326 326 325 325 325 325 325 323 320 317 314 311 308 304 298 292 287 283 278 274
329 329 328 329 329 329 328 329 329 329 329 331 333 332 332 331 331 331 330 330 329 328 327 326 325 325 324 324 324 324 323 321 319 316 312 309 306 303 299 294 289 283 279 275
328 329 329 329 329 329 329 330 330 330 329 330 332 332 331 330 331 331 331 330 329 328 327 326 325 324 324 323 323 322 321 319 317 314 311 307 303 300 297 294 289 285 280 276
329 329 329 329 330 330 331 331 330 330 329 330 331 332 332 331 331 331 331 331 330 328 327 326 325 324 323 323 322 320 319 317 314 311 308 305 301 297 294 291 288 285 281 277
Height
5808 5807 5804 5803 5801 5799 5798 5796 5794 5792 5790 5789 5786 5782 5778 5778 5776 5773 5770 5767 5764 5761 5757 5754 5750 5746 5742 5738 5734 5731 5727 5724 5720 5717 5714 5712 5709 5707 5705 5703 5702 5700 5700 5700
5807 5805 5803 5801 5800 5798 5796 5795 5793 5791 5788 5786 5784 5779 5775 5773 5770 5766 5763 5759 5755 5751 5747 5743 5738 5734 5730 5726 5722 5718 5714 5709 5705 5701 5698 5696 5693 5691 5689 5686 5685 5683 5682 5682
5806 5805 5803 5801 5800 5798 5795 5793 5790 5788 5785 5782 5778 5775 5771 5767 5763 5759 5754 5750 5745 5740 5736 5731 5726 5721 5717 5712 5707 5702 5698 5693 5688 5684 5680 5676 5674 5672 5670 5667 5665 5664 5663 5663
5807 5805 5803 5801 5798 5796 5793 5790 5787 5783 5779 5776 5772 5766 5762 5758 5754 5750 5744 5739 5734 5728 5723 5717 5712 5707 5701 5695 5690 5684 5678 5673 5667 5662 5658 5654 5651 5649 5647 5644 5642 5642 5642 5641
5806 5803 5801 5799 5796 5793 5790 5786 5782 5778 5773 5769 5763 5757 5751 5746 5742 5737 5732 5726 5721 5715 5708 5702 5696 5689 5683 5676 5670 5664 5657 5651 5644 5638 5632 5628 5625 5622 5620 5618 5616 5616 5618 5618
5805 5801 5799 5796 5793 5789 5785 5782 5777 5771 5765 5759 5753 5748 5740 5734 5728 5723 5717 5711 5705 5699 5692 5685 5678 5670 5663 5656 5649 5641 5634 5626 5619 5612 5606 5601 5597 5595 5593 5592 5590 5589 5591 5592
5802 5800 5796 5793 5789 5785 5780 5775 5770 5764 5757 5752 5746 5740 5734 5724 5717 5710 5703 5696 5689 5682 5674 5666 5658 5649 5641 5633 5625 5616 5609 5602 5594 5586 5580 5574 5570 5568 5567 5567 5565 5565 5566 5567
5799 5796 5793 5788 5784 5779 5774 5768 5763 5758 5752 5747 5739 5730 5724 5716 5707 5698 5689 5681 5674 5665 5656 5647 5637 5627 5618 5609 5601 5592 5584 5577 5571 5563 5558 5552 5548 5544 5544 5544 5543 5544 5545 5547
5796 5793 5788 5784 5778 5774 5768 5763 5756 5751 5744 5737 5729 5719 5713 5705 5696 5686 5676 5667 5658 5648 5638 5628 5617 5607 5597 5588 5580 5571 5562 5555 5549 5542 5535 5531 5526 5523 5522 5523 5524 5525 5527 5530
5792 5789 5784 5779 5775 5769 5763 5756 5750 5742 5735 5728 5723 5711 5701 5690 5680 5670 5660 5650 5640 5629 5618 5607 5597 5587 5578 5570 5563 5555 5545 5535 5525 5517 5509 5505 5503 5502 5502 5503 5505 5507 5510 5514
5788 5785 5780 5773 5767 5761 5755 5748 5741 5734 5725 5716 5709 5703 5688 5674 5662 5653 5644 5633 5621 5609 5599 5589 5580 5572 5564 5557 5549 5540 5530 5518 5506 5495 5488 5484 5483 5483 5484 5486 5488 5490 5494 5498
5783 5779 5774 5768 5762 5755 5748 5741 5733 5726 5718 5708 5697 5693 5672 5658 5645 5635 5626 5616 5605 5594 5584 5574 5566 5559 5553 5546 5538 5528 5517 5505 5493 5484 5477 5473 5471 5471 5471 5472 5473 5475 5478 5483
5778 5773 5768 5762 5757 5749 5740 5731 5723 5714 5705 5697 5685 5679 5664 5647 5634 5623 5612 5599 5588 5578 5569 5561 5554 5549 5543 5535 5527 5517 5507 5496 5486 5478 5472 5468 5465 5463 5461 5461 5461 5463 5466 5469
5773 5768 5763 5757 5748 5739 5730 5722 5713 5702 5691 5681 5670 5657 5646 5631 5620 5609 5596 5584 5573 5564 5556 5550 5545 5540 5533 5526 5517 5508 5499 5490 5482 5475 5469 5464 5460 5457 5454 5452 5452 5453 5455 5458
5768 5762 5755 5748 5739 5730 5721 5712 5703 5690 5676 5665 5653 5640 5626 5612 5600 5590 5579 5570 5563 5555 5548 5542 5537 5531 5524 5517 5509 5501 5493 5485 5478 5471 5466 5461 5457 5453 5449 5447 5446 5446 5447 5449
5761 5755 5748 5741 5731 5721 5711 5701 5690 5676 5663 5650 5636 5627 5613 5600 5589 5579 5568 5560 5553 5546 5540 5534 5529 5523 5517 5510 5502 5495 5487 5480 5474 5468 5462 5457 5453 5449 5445 5442 5441 5440 5440 5441
5753 5746 5738 5731 5720 5711 5699 5689 5676 5661 5647 5633 5622 5612 5598 5589 5579 5568 5558 5551 5544 5538 5532 5527 5522 5516 5510 5503 5496 5489 5482 5475 5469 5463 5458 5453 5449 5445 5441 5438 5436 5435 5435 5435
5745 5736 5727 5719 5709 5699 5689 5677 5663 5649 5636 5621 5611 5599 5587 5577 5569 5560 5551 5544 5538 5531 5526 5521 5515 5510 5503 5496 5489 5482 5476 5469 5463 5458 5453 5448 5444 5440 5437 5434 5432 5430 5430 5430
5735 5726 5716 5706 5696 5687 5674 5663 5648 5636 5625 5608 5599 5589 5580 5571 5565 5557 5547 5539 5532 5526 5520 5514 5508 5502 5496 5490 5483 5476 5469 5463 5457 5451 5446 5442 5438 5434 5431 5429 5427 5425 5424 5424
5727 5718 5707 5695 5683 5674 5662 5650 5634 5622 5614 5601 5590 5581 5572 5563 5555 5549 5540 5533 5526 5520 5514 5508 5502 5496 5490 5483 5476 5469 5462 5456 5449 5444 5439 5435 5431 5427 5424 5422 5420 5418 5417 5417
5719 5709 5699 5686 5673 5662 5649 5636 5623 5614 5603 5591 5583 5575 5565 5556 5548 5541 5533 5527 5520 5514 5508 5502 5496 5490 5484 5477 5470 5462 5455 5449 5442 5436 5431 5426 5422 5419 5416 5414 5412 5410 5409 5408
5709 5698 5687 5675 5664 5654 5637 5624 5614 5606 5594 5584 5575 5567 5558 5551 5543 5536 5529 5522 5515 5509 5503 5496 5490 5484 5477 5470 5463 5455 5448 5441 5434 5428 5423 5418 5413 5410 5406 5404 5402 5400 5399 5398
5702 5691 5679 5668 5657 5641 5626 5614 5604 5595 5587 5579 5571 5562 5554 5546 5538 5531 5524 5517 5510 5503 5496 5490 5483 5477 5469 5462 5455 5447 5440 5433 5426 5420 5414 5409 5404 5400 5396 5393 5391 5389 5388 5387
5694 5683 5671 5659 5647 5634 5621 5608 5598 5589 5580 5572 5563 5555 5548 5540 5533 5525 5518 5511 5504 5497 5490 5483 5476 5469 5461 5454 5446 5438 5431 5423 5417 5411 5405 5400 5395 5390 5386 5382 5380 5377 5375 5374
5684 5673 5663 5651 5639 5626 5613 5601 5591 5583 5574 5566 5558 5550 5542 5535 5527 5520 5513 5506 5499 5491 5484 5476 5468 5460 5452 5444 5436 5428 5421 5413 5407 5400 5394 5389 5384 5379 5375 5371 5367 5364 5362 5359
5675 5665 5653 5642 5628 5615 5604 5592 5584 5576 5569 5561 5553 5545 5537 5529 5522 5515 5508 5500 5492 5484 5476 5468 5460 5451 5442 5433 5425 5417 5409 5402 5395 5388 5382 5376 5371 5366 5361 5357 5353 5349 5346 5344